[[{"header":{"parameterUnit":"m.s-1","parameterCategory":1,"la1":30.2991,"la2":30.254,"lo1":-89.0895,"lo2":-89.0444,"dy":0.0017,"dx":0.0017,"nx":28,"ny":28,"refTime":"2025-07-29T03:00:00:Z","depth":0,"parameterNumber":2,"parameterNumberName":"U-component_of_WINDS"},"data":[0,0,0,0,0,0,0,0,0,0,0,0,0,0,0,0,0,0,0,0,0,0,0,0,0,0,0,0,0,0,0,0,0,0,0,0,0,0,0,0,0,0,0,0,0,0,0,0,0,0,0,0,0,0,0,0,0,0,3.5955,3.5955,0,3.5968,3.5968,3.5968,3.5864,3.5861,3.5858,3.5855,3.5865,3.5868,3.5871,0,0,0,0,0,0,0,0,0,0,0,0,0,3.5838,3.5841,3.5955,3.5955,3.5956,3.5968,3.5968,3.5968,3.5864,3.5861,3.5857,3.5854,3.5864,3.5868,3.5871,0,0,0,0,0,0,0,0,0,0,0,0,0,3.5874,3.5842,3.5955,3.5905,3.5901,3.5968,3.5968,3.5968,3.5865,3.5861,3.5856,3.5852,3.5863,3.5867,3.5872,3.5986,0,0,3.5885,3.5887,0,0,0,0,0,0,0,0,3.5872,3.5878,3.5912,3.5909,3.5904,3.591,3.593,3.5974,3.5866,3.5879,3.5855,3.585,3.5883,3.5886,3.5898,3.5987,3.5987,3.5886,3.5888,3.589,3.5891,0,0,0,0,0,0,0,3.587,3.5877,3.596,3.5913,3.5908,3.5881,3.5882,3.5938,3.5905,3.5877,3.587,3.5873,3.588,3.5894,3.5897,3.5987,3.5885,3.5889,3.5892,3.5894,3.6172,3.6176,0,0,0,0,0,0,3.5874,3.5876,3.596,3.5961,3.5877,3.5887,3.5887,3.5912,3.5904,3.5899,3.5876,3.5868,3.5888,3.5892,3.5897,3.603,3.589,3.5894,3.5897,3.6167,3.6173,3.6178,0,0,0,0,0,0,3.5872,3.5883,3.5959,3.5916,3.5924,3.5894,3.5923,3.5915,3.5928,3.5904,3.5897,3.5896,3.5885,3.5891,3.5965,3.6029,3.5896,3.59,3.6161,3.6169,3.6175,3.6298,0,0,0,0,0,0,3.5869,3.5883,3.5926,3.5918,3.5927,3.6028,3.5927,3.5918,3.5937,3.5925,3.5921,3.5916,3.5882,3.5959,3.597,3.6033,3.5904,3.6155,3.6165,3.6173,3.6288,3.6309,3.6326,0,0,0,0,0,3.5865,3.5959,3.5929,3.594,3.5981,3.6032,3.6037,3.5997,3.5942,3.5985,3.597,3.5916,3.6021,3.5968,3.5979,3.6044,3.6151,3.6162,3.6172,3.628,3.6305,3.6326,0,0,0,0,0,0,3.5974,3.5957,3.5923,3.6018,3.6027,3.6014,3.6067,3.6024,3.6049,3.6037,3.5986,3.5986,3.6068,3.6064,3.6004,3.6155,3.6076,3.609,3.6154,3.6178,3.6196,3.6194,3.5908,0,0,0,0,0,3.6009,3.6053,3.6036,3.6121,3.6128,3.6098,3.6118,3.6087,3.6094,3.6097,3.6087,3.6096,3.613,3.6154,3.6185,3.6288,3.6285,3.6339,3.6358,3.6373,3.6384,3.6438,3.6462,3.6212,3.6212,3.6212,0,0,3.6081,3.6078,3.6109,3.6143,3.6146,3.6192,3.6101,3.6153,3.6187,3.6105,3.6174,3.6168,3.6174,3.6263,3.6302,3.6262,3.6453,3.6387,3.64,3.6402,3.6452,3.6475,3.6496,3.622,3.6218,3.6217,0,0,3.6236,3.6239,3.631,3.6317,3.6324,3.6304,3.6321,3.6316,3.6308,3.6378,3.6318,3.6357,3.6418,3.6425,3.6436,3.6598,3.6548,3.6609,3.6707,3.676,3.678,3.6797,3.6853,3.6874,3.6621,3.6622,3.6622,0,3.6325,3.6393,3.6352,3.6409,3.6425,3.6356,3.6427,3.6435,3.6452,3.6465,3.642,3.6497,3.6496,3.6586,3.6625,3.6638,3.6655,3.6608,3.6781,3.6797,3.6813,3.6865,3.6887,3.6629,3.6628,3.6627,3.6626,0,3.6501,3.6549,3.6605,3.6625,3.6649,3.6713,3.668,3.6709,3.6677,3.6661,3.6733,3.6731,3.676,3.6779,3.6748,3.6865,3.684,3.679,3.6709,3.6844,3.6893,3.6913,3.6639,3.6636,3.6634,3.6633,0,0,3.672,3.672,3.6741,3.6749,3.6754,3.679,3.6852,3.6882,3.6907,3.6922,3.6971,3.7026,3.6979,3.6993,3.6962,3.7009,3.7136,3.6952,3.6951,3.6985,3.7264,3.7301,3.7325,3.7105,3.7109,3.7112,3.7263,0,3.687,3.6975,3.6942,3.7047,3.7091,3.7028,3.7081,3.7089,3.7077,3.7112,3.7098,3.7137,3.7073,3.7081,3.7125,3.7111,3.7191,3.71,3.7148,3.715,3.7146,3.735,3.7389,3.7532,3.7282,3.7285,3.7287,0,3.7058,3.7083,3.7194,3.7193,3.721,3.7258,3.7284,3.7318,3.7327,3.7315,3.7332,3.7291,3.735,3.7273,3.7353,3.7292,3.7311,3.7307,3.7312,3.7312,3.7225,3.7354,3.7576,3.7597,3.7317,3.7315,3.7313,0,3.7206,3.7267,3.7341,3.7351,3.7352,3.7387,3.7389,3.7394,3.7414,3.7437,3.7449,3.7479,3.7494,3.7517,3.7485,3.7432,3.757,3.749,3.756,3.7561,3.7589,3.7587,3.7815,3.7606,3.7605,3.7605,3.7605,0,3.7375,3.7445,3.7407,3.7453,3.7529,3.749,3.7567,3.7561,3.7567,3.7609,3.7557,3.7597,3.7555,3.7592,3.7568,3.7637,3.7645,3.7636,3.7628,3.7639,3.764,3.7648,3.7636,3.7611,3.7609,3.7608,3.7607,0,3.7551,3.7529,3.7605,3.7602,3.7602,3.7659,3.7654,3.7696,3.7681,3.7736,3.7746,3.7723,3.7764,3.7736,3.7777,3.776,3.7851,3.7831,3.7849,3.7842,3.7913,3.7906,3.8152,3.8181,3.7956,3.7958,3.796,0,3.7659,3.7712,3.7714,3.774,3.7746,3.7788,3.7809,3.7774,3.7799,3.7814,3.7853,3.789,3.7917,3.7986,3.7972,3.8003,3.7981,3.8065,3.7985,3.7995,3.798,3.7976,3.798,3.808,3.8083,3.8085,3.8087,0,3.7853,3.784,3.7874,3.7905,3.7933,3.7955,3.7973,3.7997,3.7961,3.7992,3.8034,3.8055,3.8098,3.8135,3.8161,3.8161,3.8118,3.8113,3.813,3.814,3.8148,3.8143,3.789,3.8106,3.8104,3.8103,3.8102,3.8101,3.7996,3.804,3.805,3.8089,3.81,3.8119,3.8157,3.8149,3.8184,3.8217,3.8194,3.8244,3.8252,3.8283,3.829,3.8328,3.8293,3.8319,3.8325,3.8331,3.834,3.8145,3.8333,3.8332,3.8331,3.8331,3.8331,0,3.8185,3.8189,3.8227,3.8255,3.8286,3.8246,3.8264,3.8293,3.8338,3.835,3.8379,3.8428,3.8464,3.8455,3.8487,3.8519,3.85,3.8528,3.8524,3.8524,3.837,3.8351,3.8543,3.8543,3.8543,3.8543,3.8543,3.8543,3.8287,3.8359,3.8348,3.8425,3.8428,3.8478,3.8491,3.8508,3.8518,3.8575,3.8606,3.86,3.8604,3.8636,3.8668,3.8664,3.8677,3.8712,3.8701,3.8556,3.8535,3.8515,3.8497,3.8716,3.8716,3.8852,3.8853,3.8854]},{"header":{"parameterUnit":"m.s-1","parameterCategory":1,"la1":30.2991,"la2":30.254,"lo1":-89.0895,"lo2":-89.0444,"dy":0.0017,"dx":0.0017,"nx":28,"ny":28,"refTime":"2025-07-29T03:00:00:Z","depth":0,"parameterNumber":3,"parameterNumberName":"V-component_of_WINDS"},"data":[0,0,0,0,0,0,0,0,0,0,0,0,0,0,0,0,0,0,0,0,0,0,0,0,0,0,0,0,0,0,0,0,0,0,0,0,0,0,0,0,0,0,0,0,0,0,0,0,0,0,0,0,0,0,0,0,0,0,0.8689,0.8691,0,0.8875,0.8877,0.8879,0.8944,0.8943,0.8942,0.8941,0.9141,0.9146,0.9152,0,0,0,0,0,0,0,0,0,0,0,0,0,0.8398,0.8403,0.8689,0.8691,0.8694,0.8874,0.8877,0.8879,0.8944,0.8943,0.8942,0.8941,0.9139,0.9146,0.9153,0,0,0,0,0,0,0,0,0,0,0,0,0,0.8548,0.8404,0.8689,0.8747,0.8754,0.8874,0.8877,0.888,0.8944,0.8943,0.8942,0.8941,0.9136,0.9145,0.9154,0.9231,0,0,0.9181,0.9185,0,0,0,0,0,0,0,0,0.8539,0.8559,0.8736,0.8743,0.8752,0.8885,0.8847,0.8998,0.8944,0.8872,0.8941,0.894,0.9057,0.9072,0.911,0.9241,0.9249,0.9182,0.9188,0.9191,0.9194,0,0,0,0,0,0,0,0.8529,0.8551,0.8763,0.8739,0.8748,0.8767,0.8787,0.8876,0.8969,0.8878,0.8883,0.8904,0.9061,0.9101,0.9115,0.9252,0.9182,0.919,0.9195,0.9199,0.9455,0.9457,0,0,0,0,0,0,0.8507,0.8542,0.8757,0.8768,0.864,0.8773,0.8795,0.8843,0.8968,0.8986,0.8905,0.8906,0.9086,0.9105,0.9122,0.9221,0.9191,0.92,0.9205,0.9454,0.9456,0.9457,0,0,0,0,0,0,0.8501,0.8526,0.8749,0.8656,0.8686,0.8779,0.8832,0.8847,0.8888,0.8988,0.9005,0.8928,0.9086,0.911,0.9203,0.9229,0.9204,0.9212,0.9452,0.9454,0.9456,0.9419,0,0,0,0,0,0,0.8492,0.8523,0.8552,0.8656,0.8691,0.8825,0.8834,0.8852,0.8902,0.8906,0.9014,0.9032,0.9087,0.9189,0.9212,0.9241,0.9219,0.945,0.9453,0.9456,0.9418,0.9419,0.942,0,0,0,0,0,0.8482,0.8537,0.8553,0.8579,0.8729,0.8826,0.8846,0.8906,0.8903,0.8934,0.8998,0.9028,0.9222,0.9198,0.9224,0.9256,0.9449,0.9452,0.9455,0.9418,0.9419,0.942,0,0,0,0,0,0,0.8437,0.8551,0.8571,0.8661,0.8733,0.8837,0.8878,0.8906,0.8983,0.8983,0.9057,0.9081,0.9169,0.9222,0.9194,0.9337,0.9337,0.9346,0.93,0.9302,0.9303,0.9289,0.9227,0,0,0,0,0,0.8436,0.8503,0.8601,0.8671,0.8705,0.8785,0.883,0.8869,0.8948,0.898,0.9051,0.9128,0.9207,0.9257,0.9335,0.9425,0.9451,0.946,0.9461,0.9462,0.9469,0.9521,0.9526,0.9468,0.9468,0.9468,0,0,0.8439,0.8509,0.8548,0.8664,0.8724,0.8794,0.881,0.8884,0.8937,0.8992,0.9083,0.9138,0.923,0.9321,0.9366,0.9368,0.949,0.9466,0.9465,0.9473,0.9524,0.953,0.9535,0.947,0.9469,0.9469,0,0,0.8478,0.8537,0.8601,0.866,0.875,0.8802,0.8817,0.8916,0.8953,0.9045,0.9087,0.9152,0.9286,0.9349,0.9399,0.9458,0.9488,0.9481,0.9488,0.9537,0.9542,0.9546,0.9568,0.9575,0.9487,0.9487,0.9487,0,0.847,0.8574,0.8632,0.8702,0.8752,0.88,0.8867,0.8922,0.9034,0.9068,0.9069,0.9235,0.9301,0.9408,0.9422,0.946,0.9481,0.947,0.9536,0.9541,0.9546,0.9568,0.9576,0.9486,0.9486,0.9486,0.9486,0,0.856,0.8631,0.8673,0.8775,0.8829,0.8898,0.8968,0.9016,0.905,0.9102,0.9196,0.9275,0.9369,0.9397,0.9432,0.9509,0.9508,0.9521,0.9523,0.9549,0.9571,0.958,0.9484,0.9484,0.9485,0.9485,0,0,0.8579,0.8709,0.8724,0.877,0.8871,0.8928,0.8999,0.9087,0.9127,0.9202,0.9264,0.9374,0.9386,0.9442,0.9485,0.9528,0.957,0.9536,0.954,0.9541,0.966,0.965,0.9658,0.9589,0.9591,0.9593,0.9652,0,0.8632,0.8757,0.881,0.8911,0.8978,0.9023,0.9085,0.9154,0.9204,0.927,0.9327,0.9404,0.9413,0.9447,0.9492,0.9555,0.9595,0.9551,0.965,0.9653,0.9627,0.9669,0.966,0.9712,0.9661,0.9662,0.9663,0,0.8711,0.8782,0.8888,0.8979,0.9009,0.9063,0.9147,0.9209,0.9289,0.9322,0.9383,0.9422,0.95,0.9494,0.9603,0.9572,0.9615,0.9652,0.9656,0.9669,0.9661,0.9685,0.973,0.9738,0.9677,0.9676,0.9675,0,0.8715,0.8837,0.8917,0.8955,0.9062,0.9099,0.9146,0.9224,0.9273,0.9348,0.9381,0.9464,0.951,0.9575,0.9637,0.9627,0.974,0.9739,0.9772,0.977,0.9796,0.9793,0.985,0.9821,0.982,0.982,0.982,0,0.877,0.8834,0.8919,0.8968,0.9041,0.9102,0.9173,0.9224,0.9292,0.9354,0.9399,0.9456,0.9533,0.9601,0.965,0.9732,0.9753,0.9784,0.9797,0.9781,0.9777,0.9812,0.981,0.9822,0.9822,0.9822,0.9821,0,0.8788,0.8847,0.8937,0.9029,0.9054,0.9104,0.9185,0.9235,0.9285,0.9362,0.9384,0.9465,0.9546,0.9613,0.9721,0.9754,0.984,0.9855,0.9812,0.9819,0.9848,0.9845,0.993,0.9945,0.9904,0.9904,0.9905,0,0.8819,0.8869,0.8965,0.9007,0.9053,0.9121,0.917,0.9231,0.9281,0.9373,0.9413,0.9496,0.9567,0.9695,0.9765,0.9848,0.9865,0.9889,0.9878,0.986,0.9867,0.9863,0.9869,0.9891,0.9891,0.9891,0.9891,0,0.8869,0.8895,0.8962,0.9039,0.9095,0.916,0.9226,0.9259,0.9332,0.9386,0.9467,0.9521,0.9629,0.9712,0.9801,0.9853,0.9885,0.9893,0.9905,0.9891,0.9864,0.988,0.9816,0.9892,0.9892,0.9892,0.9891,0.9891,0.8896,0.8942,0.9016,0.9089,0.9143,0.9203,0.9254,0.9309,0.9377,0.9467,0.9499,0.9583,0.9661,0.9784,0.9835,0.9903,0.9907,0.9924,0.9929,0.9933,0.9931,0.9851,0.992,0.992,0.992,0.992,0.992,0,0.8949,0.8998,0.9064,0.9152,0.921,0.923,0.9303,0.9351,0.9423,0.9491,0.9557,0.9651,0.9731,0.9805,0.989,0.993,0.9947,0.995,0.9949,0.996,0.9922,0.9904,0.9935,0.9935,0.9935,0.9935,0.9935,0.9935,0.8984,0.9061,0.9096,0.9201,0.9251,0.933,0.937,0.9426,0.948,0.9581,0.9646,0.9693,0.9764,0.9853,0.9928,0.9948,0.9978,0.9977,1.0001,0.9965,0.9963,0.9961,0.9944,0.9983,0.9983,1.0034,1.0034,1.0035]}]]